Theta_e
339 338 338 338 338 337 336 336 337 334 333 334 333 332 329 327 323 320 320 323 323 327 331 328 330 335 335 336 339 339 339 342 345 344 339 329 330 339 342 341 341 340 340 339 341 343 344 344 344 346 346 347 348 349 348 348 348 347 347 346 346 344 344 344 343 343 343 343 343 343 343 344 344 345
341 340 338 338 337 339 338 338 340 340 335 334 333 332 331 330 326 324 322 322 325 325 329 331 329 333 334 337 339 339 339 344 346 343 341 331 330 334 338 339 338 338 337 337 336 339 340 341 341 341 342 343 345 347 347 347 346 346 346 345 343 343 344 344 343 343 343 342 343 343 343 342 342 342
343 341 339 338 337 338 338 339 339 340 340 337 336 334 333 331 329 327 324 320 325 330 328 331 332 332 334 336 338 339 339 343 345 342 341 335 335 336 335 337 337 336 336 335 335 335 335 336 337 338 339 341 343 345 345 346 346 345 344 343 343 343 344 343 342 342 342 342 341 340 340 340 340 340
345 343 340 339 338 338 337 338 339 339 340 340 337 337 335 333 331 330 327 324 325 330 331 331 333 333 335 335 337 338 339 342 348 342 340 338 341 337 333 337 336 335 334 334 334 333 332 333 336 338 340 341 343 344 343 342 342 342 343 343 343 343 343 341 340 340 340 339 338 338 338 338 338 338
346 344 342 341 340 339 338 338 338 338 338 339 338 337 336 335 334 332 330 327 327 330 333 333 334 336 336 334 336 337 337 338 340 346 340 339 337 336 336 337 339 336 333 332 332 332 332 333 335 337 339 341 342 343 343 341 339 340 340 340 339 340 341 338 337 338 338 337 337 337 336 337 336 336
348 346 344 343 341 340 339 338 338 338 337 339 338 336 336 335 335 335 333 331 330 329 329 332 336 335 337 334 336 336 336 336 339 342 341 340 338 336 336 337 339 341 336 332 330 331 331 332 334 336 338 339 339 340 341 339 336 337 337 335 335 335 333 333 334 336 335 336 336 336 335 335 335 335
349 347 345 344 344 343 340 339 339 338 337 338 338 338 337 335 335 336 334 331 329 328 329 331 333 334 335 335 335 336 337 338 338 340 340 339 340 340 338 339 340 340 338 335 332 331 331 332 333 334 337 337 336 337 335 334 334 334 332 331 333 333 330 330 331 334 334 335 335 334 333 333 333 333
350 348 346 346 345 344 341 340 339 339 337 336 337 338 337 337 335 335 336 334 331 330 329 329 332 334 333 335 335 337 338 336 336 338 339 339 338 339 341 339 339 339 337 335 333 331 331 331 331 331 332 332 330 330 330 330 331 330 329 328 328 328 327 326 328 331 330 329 331 331 332 331 332 329
352 350 348 347 346 345 342 342 340 340 337 337 336 337 337 337 337 336 336 336 334 331 330 330 331 334 334 335 335 336 335 336 336 337 337 337 337 338 340 341 340 339 336 336 334 332 331 331 331 330 330 329 329 328 328 327 328 327 326 326 325 326 326 325 323 325 326 325 326 325 326 328 328 328
354 352 350 349 348 346 343 343 342 341 339 338 336 335 336 337 337 336 335 336 335 333 332 331 331 328 334 333 334 336 336 335 334 335 338 337 337 337 337 339 341 341 339 337 337 334 332 332 330 330 330 329 328 327 327 326 325 324 323 321 320 323 323 323 324 323 322 323 324 325 325 325 325 326
355 354 352 351 349 347 346 344 343 342 340 339 338 337 336 336 336 336 335 335 334 334 333 332 332 331 332 334 333 335 336 336 336 334 334 335 337 336 336 336 338 340 340 339 338 337 336 334 332 325 325 327 327 327 326 325 323 322 320 318 317 318 319 319 321 322 321 321 321 320 319 321 325 326
356 355 354 353 351 349 348 346 345 344 342 341 339 339 338 336 336 335 335 334 334 334 333 333 332 332 332 330 333 334 333 333 332 334 334 333 334 335 336 336 335 336 338 337 336 336 335 333 330 326 325 327 328 327 327 327 327 325 321 319 321 320 318 318 319 320 319 318 317 317 317 316 319 321
357 356 356 355 353 352 348 343 342 342 340 343 340 340 339 337 336 335 335 335 334 334 333 333 333 331 331 332 332 332 333 333 333 333 333 332 333 335 335 336 336 336 336 336 335 333 333 332 330 329 327 327 329 328 329 329 331 328 322 321 322 322 321 318 318 319 318 317 316 315 315 316 317 319
355 356 356 357 350 342 339 338 337 336 335 335 341 342 340 339 337 336 335 334 334 333 333 333 332 331 331 332 333 333 334 335 335 331 332 331 331 328 331 333 335 338 337 335 333 334 334 332 330 328 328 329 333 329 328 328 328 329 326 324 322 322 322 320 318 318 317 317 316 315 313 314 317 317
353 355 356 356 353 345 340 341 335 334 334 333 333 335 337 337 340 337 336 335 335 333 333 334 333 332 332 333 334 334 334 335 335 334 333 332 331 329 328 327 330 337 338 335 333 334 334 332 330 329 329 329 330 331 329 329 329 326 325 325 324 323 322 322 321 319 317 316 316 315 314 314 315 315
354 353 354 355 356 355 353 351 347 338 333 332 332 332 333 333 333 335 339 337 336 335 333 333 333 333 333 334 334 334 334 334 334 335 333 332 331 330 329 329 329 333 340 336 333 333 334 333 332 330 331 331 331 332 330 328 328 326 324 325 324 324 323 323 323 323 321 319 318 318 317 317 316 316
355 354 353 353 355 356 344 349 351 350 346 333 329 330 330 331 330 330 331 333 340 339 336 334 334 334 335 334 335 336 335 336 333 334 333 333 332 332 331 331 332 333 339 336 333 332 334 332 332 331 333 333 333 333 331 329 329 327 325 325 325 325 324 323 323 322 321 320 318 318 317 316 315 315
356 355 354 353 353 354 354 353 351 351 350 349 345 339 338 339 338 330 328 328 329 335 339 337 335 336 337 335 336 338 338 335 333 333 333 334 333 332 332 334 335 335 340 336 333 331 332 334 332 331 333 334 334 334 331 328 327 327 326 325 324 323 323 322 322 321 321 320 318 316 314 313 312 313
357 357 357 355 354 354 354 354 352 351 351 350 349 347 344 342 342 342 341 338 337 336 338 339 339 339 338 338 338 338 339 338 337 336 335 335 335 336 336 335 333 332 341 338 335 329 333 334 333 333 334 334 335 336 329 327 326 326 325 324 324 323 322 321 321 320 319 319 317 315 313 311 310 309
358 358 358 356 355 355 354 346 336 341 352 351 349 348 347 346 345 345 338 336 337 340 341 340 341 341 341 335 340 339 338 339 339 340 339 337 334 333 332 331 334 334 338 340 336 331 331 335 334 335 336 334 333 334 334 328 325 325 324 324 324 322 320 319 320 319 318 318 316 314 311 309 307 306
357 358 358 357 357 356 355 344 333 331 336 351 350 349 348 348 348 347 348 335 328 328 327 327 329 330 330 329 326 326 328 335 337 337 334 333 334 332 330 330 331 332 335 340 339 334 331 332 335 334 333 333 333 332 331 332 326 323 322 322 322 320 319 318 317 317 317 316 315 314 313 309 307 308
357 357 350 357 357 356 356 339 330 330 334 347 350 350 349 348 348 348 350 349 343 327 325 325 326 327 328 328 328 327 325 325 330 337 332 334 334 332 331 329 331 333 335 338 340 334 333 332 333 332 325 327 327 330 330 329 327 324 319 318 320 319 318 317 316 316 316 315 314 312 310 308 307 309
357 357 353 347 346 351 350 334 329 327 332 347 349 350 349 348 348 350 350 348 348 346 340 337 334 335 331 335 335 336 328 328 334 337 337 337 334 332 332 332 330 329 331 337 341 334 333 331 331 331 321 322 322 323 327 328 324 323 324 323 322 319 318 317 314 313 313 313 312 312 309 307 308 309
355 356 356 351 332 328 330 328 325 323 322 343 350 350 349 348 348 352 351 350 350 348 347 345 343 340 340 340 339 339 339 337 338 337 339 338 336 334 333 333 332 330 331 335 340 336 335 333 331 331 329 323 320 318 322 323 322 323 323 321 319 319 319 318 314 311 310 310 309 309 308 307 308 309
354 355 356 357 341 327 323 322 321 320 318 323 346 351 350 350 350 346 351 351 340 348 348 347 346 345 343 342 341 341 339 340 339 338 337 341 341 338 335 333 333 332 335 336 338 338 334 332 332 328 327 324 316 316 318 321 321 321 322 321 319 319 319 319 317 316 311 308 307 306 306 307 307 309
355 356 357 357 345 330 322 318 316 315 317 318 332 344 331 331 331 342 348 351 351 349 346 345 344 344 344 343 342 341 341 341 341 341 340 341 342 342 340 338 334 332 334 336 333 340 336 329 333 328 327 323 318 317 315 316 319 321 321 320 320 319 319 319 318 317 316 315 313 309 310 309 309 309
356 357 357 357 327 310 309 312 311 311 312 313 323 319 319 320 322 326 339 343 347 346 342 339 338 339 342 342 341 341 342 343 343 343 343 343 341 341 342 342 341 339 340 337 339 341 338 333 335 331 328 326 321 315 316 315 315 319 317 318 319 317 319 318 317 317 316 315 315 311 308 308 309 310
352 349 339 322 307 308 306 308 311 311 311 323 315 314 316 318 319 329 333 335 338 339 337 336 336 336 339 341 341 341 342 344 344 344 344 343 343 342 341 342 344 342 341 337 338 341 339 335 333 333 332 326 323 316 314 315 316 317 317 318 318 317 316 317 317 319 319 316 315 314 312 310 311 308
339 324 313 310 310 311 310 310 313 316 317 314 311 311 313 317 327 332 335 337 337 336 334 334 335 336 337 339 341 343 344 344 344 342 342 343 343 343 342 342 341 341 342 339 337 340 340 337 333 331 330 329 326 322 320 314 314 314 316 314 310 313 315 315 315 315 315 313 310 308 307 307 306 313
316 313 312 312 315 319 324 333 336 337 337 323 320 318 320 331 334 336 337 338 338 338 336 333 333 336 338 339 341 342 342 341 340 341 340 340 339 340 339 338 337 338 339 339 337 339 339 337 334 332 330 328 327 323 320 315 312 314 317 315 312 317 316 312 311 310 314 311 310 311 309 308 308 312
331 332 330 329 320 318 317 317 318 319 323 329 334 337 338 338 338 338 338 338 339 338 338 336 335 335 336 338 337 338 339 338 340 341 339 339 339 338 338 336 335 334 336 337 338 337 338 336 334 332 328 325 325 325 320 318 315 313 315 314 314 311 311 312 312 309 310 310 311 310 309 310 312 319
324 326 322 322 329 330 329 328 328 328 330 329 329 330 331 332 334 333 329 331 335 336 337 338 338 337 337 335 336 336 337 338 339 340 339 338 338 338 337 334 333 333 333 333 334 336 340 336 333 332 331 326 322 320 319 317 316 314 314 315 316 313 312 311 310 310 310 308 306 306 306 307 309 311
324 322 323 323 323 322 323 323 323 324 324 325 326 326 327 327 328 328 329 329 330 332 333 334 335 336 336 336 336 335 335 335 337 340 339 339 338 337 337 334 333 332 331 330 329 331 334 333 332 332 330 327 325 321 317 314 314 315 314 314 314 312 311 312 312 311 308 307 306 305 306 307 310 310
319 319 319 318 318 319 320 320 321 322 323 323 324 325 321 325 326 326 326 326 327 328 329 331 332 333 334 335 336 336 335 335 336 337 333 337 338 336 334 333 333 334 332 331 328 326 328 325 324 325 326 325 324 322 320 317 314 314 315 314 314 313 313 312 311 310 309 307 305 306 306 306 307 307
318 316 316 316 315 315 317 319 320 321 321 322 323 324 324 325 325 324 325 325 325 325 326 327 328 330 331 332 334 334 334 335 336 337 335 336 337 335 334 333 332 332 331 329 326 325 324 321 321 319 318 318 317 317 324 320 316 314 314 313 314 313 313 312 311 309 309 308 307 306 306 305 305 305
312 312 314 315 315 316 317 319 320 321 322 323 324 324 324 324 325 325 324 324 325 325 325 325 325 326 328 330 331 333 333 332 334 336 336 335 334 335 335 334 332 332 332 329 325 324 323 321 320 318 315 314 314 312 313 322 321 317 314 312 313 312 313 312 314 311 310 308 308 306 303 302 303 305
315 314 314 315 318 317 319 321 322 323 324 324 324 324 324 324 324 325 325 324 325 324 324 324 324 325 326 327 328 328 330 331 332 334 334 335 334 333 333 331 331 332 331 329 326 323 323 320 319 318 316 313 312 310 312 316 315 317 317 313 313 314 313 311 311 309 309 308 307 305 303 303 303 304
315 316 317 318 319 319 321 322 323 323 324 324 324 324 324 324 325 325 326 325 323 323 323 324 324 324 325 325 326 328 330 332 332 333 332 334 333 333 332 331 331 331 330 328 324 323 322 320 319 318 316 313 311 311 310 313 315 314 314 316 313 313 314 311 309 308 307 307 307 307 304 302 303 305
314 317 318 318 320 323 324 324 324 324 324 324 324 324 324 324 324 324 323 322 323 322 323 323 323 324 324 326 326 327 329 330 331 331 331 333 333 332 331 331 331 331 330 326 323 322 321 319 319 318 317 315 313 313 314 312 313 316 314 310 314 313 312 311 310 308 307 306 306 306 306 306 308 313
319 319 319 320 324 326 326 326 325 325 325 324 324 324 323 323 323 323 323 322 322 322 322 322 322 321 324 326 326 328 330 330 330 330 330 331 330 330 331 332 331 330 327 324 320 320 319 319 320 319 319 320 320 318 317 316 312 314 317 312 309 313 314 312 310 308 305 306 305 304 304 303 305 301
318 317 318 322 326 327 326 325 325 326 325 324 323 319 323 322 322 322 322 321 321 322 322 323 324 325 326 327 328 328 328 328 329 330 330 330 328 327 327 324 328 326 322 319 319 318 319 320 323 320 323 318 316 316 313 309 307 308 312 315 308 308 311 313 312 310 307 306 305 304 302 302 301 300
319 318 319 323 326 326 325 325 325 325 324 324 323 322 321 321 321 316 320 322 322 322 322 322 323 325 326 328 328 327 327 327 328 328 329 330 330 327 323 323 326 325 322 319 318 319 321 323 324 321 317 316 316 312 309 309 306 306 309 309 313 309 308 310 310 312 312 308 305 302 301 302 301 301
319 321 323 325 326 324 323 323 324 324 323 323 322 321 320 320 320 320 321 321 321 321 320 320 321 322 324 326 328 328 327 327 327 328 328 328 329 328 325 323 322 321 322 321 320 320 321 321 318 316 316 315 315 314 310 308 306 305 305 306 309 311 312 311 309 309 311 311 310 308 306 303 299 297
321 322 325 325 324 323 321 322 323 323 323 323 322 321 320 319 318 319 320 320 320 319 319 319 319 319 320 321 322 325 326 327 328 327 327 327 327 328 325 323 321 320 319 318 318 318 318 316 316 317 315 313 313 313 311 309 307 306 305 305 307 307 308 309 310 310 310 311 310 309 310 308 307 307
325 324 324 324 321 321 321 322 322 322 322 322 321 320 319 319 318 318 319 319 319 319 318 318 317 317 318 319 319 319 319 315 317 318 318 318 320 320 319 319 318 317 317 317 316 315 316 315 316 316 314 313 314 313 312 311 308 307 305 305 305 306 306 309 307 306 307 307 309 309 309 310 310 307
Wind_Speed
6 5 6 7 6 6 5 4 5 5 4 5 5 6 8 6 6 4 5 6 6 5 6 5 6 9 8 8 7 8 9 9 10 8 8 8 7 12 16 16 16 16 16 16 16 15 15 15 14 13 12 11 10 9 9 9 9 9 7 7 7 7 6 5 5 5 5 5 5 5 6 6 7 7
6 6 6 6 6 6 5 6 5 5 6 6 6 6 6 7 8 6 7 8 5 5 4 6 4 5 8 8 7 7 9 11 13 9 9 8 8 13 16 17 16 16 16 16 15 15 15 14 14 13 12 12 11 11 10 9 10 9 8 8 8 8 7 5 5 5 5 5 5 5 5 6 7 7
7 7 8 7 7 6 6 6 6 5 5 6 6 6 6 7 7 8 6 4 6 6 7 6 6 6 8 8 8 7 8 10 13 10 9 9 12 15 13 17 17 16 16 16 16 15 15 14 14 13 13 12 12 11 10 10 10 10 9 9 8 8 7 6 5 5 6 5 5 5 5 5 6 7
7 8 8 8 8 7 6 6 7 7 5 5 6 6 7 7 7 7 7 8 10 5 7 7 6 6 7 7 8 9 7 8 15 9 9 10 13 10 8 14 17 17 16 16 15 15 15 15 14 14 13 13 12 10 11 11 11 10 9 9 9 8 8 6 6 6 6 6 5 5 5 5 5 6
8 9 9 9 9 7 7 8 7 7 6 4 5 5 6 7 7 8 8 8 9 4 4 4 5 5 5 5 8 9 8 8 8 9 8 8 8 8 8 8 14 17 16 16 15 15 15 15 15 15 14 13 11 11 12 12 11 10 10 9 8 8 7 7 6 7 6 6 5 4 4 5 5 5
8 9 10 10 10 8 9 9 9 8 7 6 6 6 6 7 8 7 8 9 7 10 3 4 4 3 4 7 5 10 10 9 6 8 8 7 8 8 8 8 8 15 16 16 16 16 16 15 15 15 14 13 13 13 13 12 12 11 10 10 10 9 8 8 7 7 7 6 5 5 5 5 6 6
10 10 10 12 10 7 9 10 9 7 7 6 7 8 6 7 7 7 8 7 8 9 9 6 5 5 4 8 7 8 8 8 8 9 9 9 7 7 7 8 7 12 15 16 16 16 15 15 15 15 14 13 13 13 12 12 11 11 11 11 11 10 10 9 9 8 7 6 6 6 5 6 6 7
11 12 11 12 11 9 10 10 9 8 7 8 8 8 7 8 8 7 7 8 8 7 8 5 8 5 5 6 5 4 6 7 7 8 8 6 7 8 7 8 7 9 14 15 15 15 15 15 15 15 14 13 13 13 12 12 11 11 11 11 11 11 11 10 9 8 7 7 6 6 6 6 7 6
13 13 13 13 11 10 10 10 9 9 9 9 8 9 8 8 8 6 7 8 6 7 9 7 4 4 5 4 5 5 7 6 6 5 7 8 8 8 8 7 8 9 14 15 15 15 15 15 15 15 15 14 14 13 13 12 12 12 12 12 11 11 11 10 10 9 8 7 7 7 7 6 7 7
12 13 14 13 11 11 12 12 11 10 12 10 9 10 9 9 7 8 7 6 7 8 10 8 7 4 6 5 5 6 7 7 7 7 7 5 6 7 7 8 7 5 6 6 7 10 11 13 14 15 15 15 14 14 13 13 12 12 12 12 12 11 11 11 10 10 9 8 8 9 8 7 7 8
12 12 12 12 11 12 13 13 12 12 11 10 12 12 12 10 8 9 8 7 8 8 9 8 7 7 6 6 8 6 6 8 9 10 8 9 8 6 8 9 7 6 6 8 12 11 11 12 11 14 17 17 16 14 14 13 13 13 13 12 12 12 12 11 11 11 10 9 9 9 9 8 7 8
12 13 12 12 12 13 13 13 13 12 12 10 11 11 10 10 10 10 9 8 8 9 9 10 9 8 8 6 6 2 3 6 7 8 9 12 10 9 8 9 9 7 7 7 6 8 8 9 10 11 11 13 13 14 13 14 13 14 13 13 13 13 12 12 11 11 11 10 10 10 9 8 8 8
13 12 12 12 12 14 16 18 16 14 13 10 11 11 10 10 10 10 9 9 9 9 9 10 8 8 8 9 8 8 9 12 14 7 7 9 8 7 7 8 7 7 7 7 7 7 8 8 8 7 7 9 12 12 13 10 13 14 13 13 14 13 13 12 12 12 12 11 11 10 9 9 8 7
13 13 13 13 18 18 18 19 19 19 18 18 15 12 10 11 10 10 11 10 10 10 11 12 11 11 12 11 11 12 12 10 6 5 7 10 9 3 7 6 7 7 7 7 8 8 6 8 8 6 8 8 9 8 8 9 10 13 15 15 14 14 13 13 13 13 12 12 11 11 10 9 8 8
14 13 13 12 14 16 16 17 20 20 21 20 21 21 18 15 14 12 12 12 11 11 12 12 10 12 14 14 11 12 12 8 10 10 8 9 6 8 9 11 4 6 9 9 8 9 7 8 8 8 8 8 8 9 10 15 17 16 15 16 16 15 15 14 13 13 12 12 12 11 10 9 9 9
11 12 12 11 10 11 14 14 14 17 20 21 22 22 22 20 20 19 16 14 12 12 12 12 13 12 14 13 10 11 9 11 9 10 8 9 10 10 10 10 11 5 11 9 9 11 5 7 8 8 9 8 8 11 13 16 16 17 16 16 16 16 15 14 13 13 12 12 12 11 10 10 10 10
11 11 11 11 11 11 17 15 14 13 14 18 22 22 22 22 21 21 23 22 17 12 13 13 14 14 13 13 14 12 12 9 10 9 9 10 9 11 11 12 10 5 10 9 9 10 7 8 8 9 9 8 8 9 13 16 17 17 17 16 16 16 14 14 14 13 13 12 12 11 11 11 11 10
12 13 12 11 11 11 11 11 13 13 14 13 13 15 15 15 19 21 24 25 24 19 15 14 16 16 12 15 14 11 8 9 12 11 13 11 11 12 14 15 13 5 8 11 8 8 7 7 8 10 10 7 8 8 12 17 17 17 17 16 16 15 14 14 14 13 13 13 13 12 13 12 11 10
13 13 12 12 13 12 12 11 12 13 14 13 13 14 15 16 16 17 18 18 15 15 16 17 18 16 14 15 16 11 8 13 13 13 15 15 15 13 9 7 4 2 7 8 7 11 6 5 8 10 9 6 8 7 10 16 18 18 17 16 16 16 15 15 15 15 14 14 13 13 13 13 11 11
12 12 12 12 13 13 13 15 18 16 13 13 15 16 16 15 15 17 20 21 19 18 18 17 19 17 16 16 15 13 10 10 10 9 9 6 4 4 7 11 6 8 6 9 9 7 6 6 9 9 6 5 7 7 6 12 17 17 17 16 17 17 17 17 16 16 15 15 14 14 13 13 12 11
12 12 12 13 13 13 14 15 17 18 16 14 15 15 16 15 15 18 16 16 20 22 23 24 25 25 23 20 19 18 17 14 11 8 9 11 6 8 11 11 7 9 6 8 9 8 9 6 8 8 5 7 7 7 7 6 11 16 16 16 17 18 17 17 16 16 16 15 14 14 14 14 12 11
11 13 18 16 14 14 14 15 17 18 16 15 16 15 16 16 18 20 13 6 12 20 23 24 25 25 24 23 21 19 17 18 14 12 15 12 9 12 11 12 9 7 7 9 9 7 12 5 6 7 1 1 4 6 6 7 7 11 14 17 18 18 17 17 17 16 16 15 14 14 15 13 10 4
11 12 13 18 17 16 16 18 17 19 16 15 16 15 15 18 20 21 7 10 13 11 11 14 15 17 21 20 18 18 21 19 18 16 17 11 12 13 12 11 6 7 10 8 11 11 9 7 7 7 3 4 4 3 6 7 6 6 7 8 10 15 17 16 16 17 16 14 15 15 14 13 8 3
11 11 11 12 16 19 20 19 18 18 19 17 15 14 15 18 21 16 11 14 13 13 15 15 14 16 15 14 15 15 14 14 16 18 18 16 14 12 13 11 11 13 10 6 15 13 8 8 8 9 9 6 5 4 5 5 6 7 7 6 7 10 11 11 11 13 13 13 14 13 13 12 7 4
10 10 10 10 14 18 19 19 19 18 19 19 16 16 16 17 19 17 13 15 17 15 14 14 13 11 9 10 11 11 13 14 15 17 19 14 12 12 12 11 11 13 14 9 18 12 10 9 10 7 7 6 4 4 4 5 5 6 6 7 8 6 6 6 5 7 10 13 13 13 12 11 9 7
9 10 10 10 13 17 15 14 15 17 17 18 13 16 21 23 22 18 16 14 13 11 9 5 6 7 8 7 7 10 14 17 18 17 14 11 12 13 14 17 17 15 15 11 23 16 12 8 12 11 9 7 6 5 4 4 5 6 4 6 7 7 7 8 6 7 6 6 7 8 10 13 12 13
10 9 9 7 7 9 7 2 6 10 13 10 12 19 20 20 20 16 12 13 13 12 2 4 3 8 12 9 11 13 15 17 15 12 11 15 17 17 17 18 18 19 17 11 19 17 15 11 11 14 13 11 8 4 5 7 4 5 4 6 6 6 7 7 7 7 6 6 6 8 9 8 9 9
2 2 2 3 7 9 9 8 8 10 9 9 14 15 17 18 16 12 12 13 13 11 2 5 4 10 15 13 12 14 15 15 13 13 14 15 16 17 18 19 19 18 16 13 16 17 16 14 11 13 13 12 10 10 9 4 3 9 9 7 6 7 6 6 6 5 5 5 5 5 5 3 3 4
1 3 7 10 11 12 12 12 12 10 11 13 13 15 16 14 8 9 9 11 10 10 6 6 8 12 15 16 16 15 15 15 10 8 10 12 14 17 17 17 16 15 13 11 14 16 16 16 13 11 10 12 13 12 11 10 8 8 9 9 4 5 5 5 6 6 5 5 6 6 5 6 4 3
8 9 9 9 8 7 7 6 5 6 8 12 14 15 14 9 9 9 10 10 10 10 6 7 10 11 13 14 14 14 13 13 14 13 11 11 13 14 14 13 13 14 13 11 13 14 15 15 14 15 15 14 14 12 10 8 6 8 9 10 7 3 3 5 6 6 6 6 6 7 5 5 4 4
2 2 2 2 4 5 7 7 7 7 8 8 7 6 5 6 6 8 7 9 10 10 10 9 10 12 14 15 15 15 15 16 16 13 13 14 15 15 15 15 16 14 15 15 14 15 17 18 16 17 16 14 12 12 11 9 10 9 8 8 10 9 6 6 6 6 6 5 3 1 1 3 2 4
2 1 2 2 3 4 5 5 4 4 4 5 6 6 7 7 7 9 12 11 9 10 10 11 10 11 12 14 16 16 16 17 16 13 13 15 15 15 14 14 16 15 14 14 14 15 18 17 16 16 17 17 16 10 10 11 11 10 9 7 6 4 6 7 6 6 5 5 3 2 2 2 4 4
1 4 6 7 7 6 6 7 7 7 8 8 8 8 8 8 9 9 8 10 11 10 9 11 11 12 12 15 15 15 16 17 15 12 13 15 15 15 15 18 17 16 16 16 16 15 14 13 13 15 13 13 15 15 13 10 7 9 11 8 8 7 5 6 6 6 4 4 5 4 2 3 5 6
5 4 5 5 5 5 6 6 6 7 7 8 8 8 9 9 9 9 9 10 11 10 11 12 12 13 13 14 14 15 17 17 15 15 16 15 14 15 16 17 17 17 17 17 16 14 11 7 6 4 4 5 3 11 14 14 11 9 9 9 9 9 7 6 6 6 7 5 6 5 1 1 3 3
5 5 5 5 3 3 3 4 6 6 6 7 7 8 8 9 11 11 10 11 11 11 12 12 13 13 14 15 15 16 17 18 17 14 14 15 15 16 16 17 17 17 16 14 12 11 12 13 14 12 8 7 5 1 6 5 13 10 9 8 9 8 7 6 6 6 5 3 5 6 4 2 4 5
2 1 0 2 3 3 4 4 4 5 5 6 7 8 9 10 10 11 12 12 12 13 13 14 14 14 15 16 16 16 16 16 17 17 16 16 17 17 17 19 19 18 16 15 14 13 14 14 15 16 14 12 12 10 9 7 8 12 12 9 7 7 6 7 6 6 7 6 6 6 6 5 6 5
2 1 0 2 4 3 3 5 5 6 6 6 7 7 8 10 10 10 12 13 13 13 14 15 15 15 16 16 16 17 16 15 16 16 16 15 15 17 17 17 18 18 17 17 15 15 15 15 15 17 17 15 15 16 11 5 5 8 12 11 8 7 8 7 7 7 6 7 6 7 6 6 5 5
1 1 1 2 2 4 5 5 5 6 7 7 8 8 9 10 11 12 12 12 13 13 15 15 16 16 16 15 15 16 15 15 15 16 17 17 19 20 21 18 15 14 15 14 14 15 15 17 17 17 18 18 16 13 11 6 7 4 7 10 10 8 7 8 7 7 6 5 7 7 5 4 6 6
1 1 3 4 5 5 5 6 6 6 7 7 8 9 10 10 11 12 12 13 14 15 16 16 16 15 16 15 15 15 15 13 14 14 15 16 17 17 15 16 16 17 16 14 13 14 15 16 18 19 20 19 20 19 16 14 11 10 10 13 9 9 8 9 8 7 7 6 5 3 2 1 1 5
1 1 1 2 4 5 5 5 5 5 6 7 8 8 9 10 10 11 12 13 15 16 16 16 18 16 14 13 13 14 14 16 16 16 15 14 13 12 12 14 19 19 17 16 16 14 15 15 17 17 16 14 10 10 10 7 6 7 9 10 13 13 10 8 8 8 5 6 6 7 4 1 3 2
2 3 3 2 3 4 5 5 5 6 6 7 8 8 9 9 10 10 11 13 14 14 15 16 15 14 12 11 11 12 13 12 12 12 13 14 14 13 16 16 12 7 10 13 15 15 18 18 14 15 13 11 12 12 11 9 9 7 7 8 9 9 14 13 10 9 6 5 7 7 7 5 4 1
1 2 3 3 3 4 4 4 5 5 6 6 7 8 9 9 9 13 13 14 13 13 13 14 15 15 12 11 11 11 12 11 10 10 11 12 12 12 11 7 9 13 18 17 18 18 12 10 14 13 11 13 12 13 10 10 9 7 6 4 4 5 8 12 12 12 9 9 7 5 3 3 2 1
2 4 4 3 3 3 3 4 5 5 6 6 7 7 8 9 9 10 10 12 12 12 13 14 14 14 13 11 10 11 11 11 10 10 10 9 10 12 11 9 9 8 8 7 10 12 13 13 12 11 11 10 8 11 9 7 8 7 5 5 5 5 3 5 5 6 7 12 11 8 7 7 7 3
4 4 4 3 4 4 3 4 5 5 5 6 6 6 6 7 8 9 9 10 11 11 12 12 13 13 13 12 12 10 9 9 9 8 7 7 9 9 8 8 9 9 9 9 10 10 10 11 11 12 12 9 8 9 9 7 7 7 7 6 4 5 6 4 2 1 2 3 6 6 8 11 7 9
4 3 3 4 4 4 3 4 5 5 5 5 5 6 6 6 7 8 9 10 10 11 11 12 12 11 12 11 11 10 10 11 9 6 6 8 7 4 9 9 6 11 16 16 15 13 13 12 10 10 11 10 7 6 7 7 7 6 6 7 6 5 4 4 5 5 4 4 8 12 10 8 7 10
Wind_Direction
200 200 206 209 216 229 227 231 224 215 207 215 203 186 176 172 161 199 230 246 227 255 206 210 229 205 212 213 209 203 207 209 202 205 202 205 210 211 211 212 213 214 217 220 221 222 224 226 228 230 230 226 222 223 228 234 241 244 243 243 250 259 264 264 266 269 275 278 280 284 288 292 293 295
196 205 207 212 226 228 217 228 226 208 205 207 202 205 191 169 183 185 192 243 212 239 251 214 230 205 211 209 212 207 212 211 202 205 204 204 212 215 212 215 217 217 219 220 221 223 225 226 227 227 227 226 225 226 226 229 234 236 233 237 244 248 250 249 249 260 262 263 265 268 275 286 293 298
192 203 214 214 225 229 228 232 234 235 210 213 202 209 193 193 186 181 182 227 266 191 224 237 224 200 209 203 207 212 217 212 206 205 205 209 212 213 216 217 218 220 222 223 223 224 225 226 227 225 223 223 224 225 223 225 231 231 228 229 235 238 241 240 236 246 252 253 258 267 275 284 295 303
199 203 212 217 221 226 228 235 232 233 227 212 211 208 199 205 195 176 182 207 247 213 214 228 236 213 207 204 204 217 219 217 211 207 208 211 212 214 222 220 220 222 223 225 226 225 225 226 226 225 223 221 221 213 218 222 226 226 225 226 229 231 231 224 222 234 241 247 255 267 278 293 303 308
201 207 213 219 222 217 222 230 234 232 230 216 218 217 202 204 197 181 191 210 246 280 229 228 240 235 193 217 211 213 214 213 215 214 215 210 208 212 216 220 221 223 225 226 226 225 224 224 225 226 225 223 217 208 212 217 220 221 220 220 222 223 224 222 225 230 236 244 249 258 274 287 291 292
208 207 214 221 222 215 219 227 231 228 228 220 217 222 212 211 202 201 181 212 211 242 270 254 245 260 193 227 201 208 209 220 209 212 217 215 211 212 211 216 224 221 223 224 224 223 221 221 224 227 227 224 219 215 214 215 214 215 215 215 217 216 218 221 221 224 234 242 243 249 260 269 276 284
206 209 215 222 218 213 220 227 230 227 227 220 219 223 217 223 217 205 204 188 218 227 242 219 238 231 217 210 222 215 220 216 202 209 216 215 215 219 211 214 221 220 220 221 221 219 217 218 221 225 226 223 218 215 214 215 212 211 209 210 212 212 212 215 218 223 228 230 239 247 254 262 269 275
206 211 215 223 216 210 217 226 227 227 223 220 221 224 222 221 226 215 208 213 211 216 237 235 211 222 212 240 243 229 223 217 213 216 223 220 223 223 219 215 217 217 214 216 215 213 213 215 218 222 223 220 215 212 211 212 212 210 209 209 209 210 212 212 214 221 223 226 235 246 250 256 266 270
210 213 216 221 213 209 216 225 225 225 223 222 218 224 224 221 225 224 216 221 214 218 230 246 228 215 227 235 232 208 207 230 237 234 227 221 222 226 225 223 223 218 210 212 214 213 213 214 216 219 220 218 213 208 207 210 213 213 212 211 209 210 212 211 213 218 222 224 232 238 240 244 254 262
215 216 219 221 212 210 213 221 221 220 223 223 222 225 227 223 217 222 227 219 220 224 238 235 254 233 223 241 235 210 204 212 226 238 240 245 235 224 232 230 227 214 200 207 220 225 225 222 220 220 221 219 214 208 206 209 213 215 215 212 211 212 213 212 213 217 220 223 229 232 233 234 242 250
220 221 223 222 217 214 215 220 221 219 221 220 224 222 224 222 216 222 223 217 220 225 238 243 234 242 236 213 238 232 207 217 214 217 227 241 232 219 218 230 228 219 216 214 209 209 208 212 213 217 219 219 215 208 207 211 214 216 216 215 213 214 215 213 214 216 217 220 226 230 230 230 236 244
223 222 223 224 221 220 219 219 223 219 222 220 226 227 223 221 219 225 224 219 220 227 233 237 239 227 236 243 248 239 184 226 246 224 214 228 225 225 222 222 218 221 212 216 215 223 222 229 225 225 225 228 223 214 211 214 216 218 218 217 216 217 216 213 214 216 218 222 226 226 222 220 230 242
225 225 225 226 225 222 224 222 223 222 220 217 225 230 220 223 221 227 228 225 221 229 232 241 237 238 233 233 228 228 218 215 225 210 206 237 233 222 227 233 224 211 205 219 210 211 200 208 215 204 207 216 214 221 213 216 217 220 220 220 220 218 216 213 213 215 218 221 225 224 217 216 224 232
226 226 226 227 225 224 223 224 224 226 224 222 222 225 215 219 219 223 226 225 223 225 229 233 230 232 238 232 222 228 229 229 234 212 200 225 229 194 239 259 232 211 205 208 219 222 197 197 213 197 212 219 204 210 202 213 210 216 217 219 220 219 217 212 211 212 214 219 224 220 214 214 221 231
225 227 227 230 228 226 228 228 226 225 225 225 227 230 224 215 212 219 223 227 220 222 228 232 228 232 240 238 227 228 233 221 219 222 213 224 210 208 215 236 256 208 196 214 219 230 203 185 205 209 217 212 202 206 209 210 213 215 212 214 218 218 216 214 212 210 211 215 220 217 212 214 222 228
226 229 230 230 231 228 226 227 229 230 230 228 228 230 230 226 221 218 218 223 224 221 228 231 229 230 235 240 229 230 221 226 219 224 214 216 214 218 221 231 231 210 182 202 211 234 194 190 207 212 220 212 204 207 208 208 212 213 213 212 215 216 215 213 212 210 210 212 216 213 214 219 221 225
227 228 230 232 229 232 228 227 230 230 233 234 235 235 234 233 227 227 229 227 224 219 226 232 236 227 233 238 237 221 219 211 220 220 222 223 219 220 223 230 233 230 188 188 212 230 213 181 208 220 224 212 208 214 211 210 211 211 211 213 215 215 211 208 208 210 208 209 210 211 218 220 220 225
227 227 228 230 234 232 229 227 227 231 234 234 234 238 239 239 238 235 234 233 231 228 229 230 236 235 219 235 239 230 205 199 217 215 224 221 222 223 225 225 226 209 164 188 195 234 221 193 205 221 229 206 211 213 207 209 214 213 213 213 213 214 209 204 205 204 205 205 206 211 219 221 221 224
226 228 228 231 235 233 229 226 220 225 229 232 236 237 236 235 237 235 235 233 231 230 234 237 240 241 228 234 240 234 201 211 216 214 220 217 218 225 242 269 260 197 197 193 177 230 218 186 209 227 220 200 213 210 211 208 211 215 214 212 211 211 206 202 199 199 200 203 205 212 219 223 223 224
228 228 228 231 235 235 234 228 217 220 224 230 236 238 239 240 238 239 235 229 224 226 230 233 239 241 235 232 237 231 217 216 221 230 238 242 233 232 240 238 224 227 202 205 195 224 234 187 205 230 218 190 213 213 211 208 209 211 212 209 208 206 202 200 196 195 198 201 207 214 221 223 224 226
228 228 227 229 235 237 238 230 217 219 215 232 236 239 242 242 243 246 241 225 228 231 232 235 238 243 244 241 238 235 220 212 207 215 227 229 191 211 233 238 220 234 194 214 208 213 236 190 203 225 213 199 211 214 216 213 212 213 212 207 204 202 201 198 195 195 198 202 208 218 223 224 222 229
234 231 228 228 233 237 241 231 219 217 208 229 237 241 244 247 248 251 244 226 230 226 231 234 238 242 245 245 245 240 228 218 201 206 225 218 187 221 223 234 221 230 212 213 189 207 232 173 197 208 284 191 247 220 218 211 216 214 215 208 201 199 197 195 196 197 198 201 210 220 225 226 225 214
237 238 233 230 232 237 241 234 224 217 207 227 235 238 243 247 250 252 240 228 236 231 227 237 237 243 243 242 241 240 232 222 214 217 226 213 202 216 219 223 218 239 243 205 175 207 225 177 208 173 139 232 264 220 208 206 203 200 202 206 208 202 195 197 197 200 198 201 213 221 227 231 219 193
236 237 239 235 231 236 241 241 232 225 211 222 234 236 241 246 252 259 245 238 234 236 231 235 228 233 238 237 239 244 242 231 224 227 226 218 212 220 223 214 207 222 231 182 176 203 218 196 206 196 187 171 223 225 187 212 199 197 187 185 197 213 207 205 210 209 202 207 216 224 229 234 204 180
237 238 237 239 233 229 234 237 239 237 227 223 233 237 242 244 251 257 256 254 237 238 239 237 238 238 240 237 237 239 240 235 230 226 227 220 211 213 224 227 228 236 231 192 179 192 208 193 206 177 215 202 177 169 204 193 200 193 188 184 198 203 186 209 207 212 216 218 222 225 231 234 213 187
235 236 238 239 236 237 239 244 247 250 247 239 237 246 247 252 255 257 254 261 262 255 259 288 309 316 280 257 243 239 238 234 231 226 218 205 216 212 215 210 213 222 228 191 180 193 197 196 197 188 196 189 228 174 148 204 200 198 185 200 205 192 185 196 200 217 204 204 213 214 223 227 224 210
233 235 244 261 18 35 33 358 268 263 264 270 249 258 268 273 280 285 286 286 281 268 306 55 1 277 263 250 233 234 243 243 237 228 202 202 209 214 220 221 220 222 224 184 190 193 197 203 189 190 195 197 177 178 194 179 211 154 167 205 209 195 195 181 193 207 206 204 216 209 216 220 213 205
334 5 28 6 322 321 322 306 299 282 269 258 262 260 263 268 273 270 273 270 274 289 209 200 154 249 258 254 248 242 245 247 236 221 211 209 208 213 220 221 222 224 220 193 191 197 196 199 194 201 187 165 180 190 198 213 153 172 184 188 201 199 185 184 191 201 204 196 191 180 161 188 212 166
304 304 291 300 306 301 299 295 289 285 273 264 260 267 269 273 278 274 270 274 276 268 242 193 209 236 248 248 249 251 252 256 252 232 222 212 214 218 221 222 221 222 223 208 199 196 194 200 194 178 165 178 188 201 184 188 168 180 172 154 197 203 183 191 179 186 188 180 182 165 181 196 206 176
305 296 293 292 306 315 312 317 315 301 296 298 289 279 279 281 277 278 280 282 286 287 257 208 221 231 244 251 249 248 251 250 241 230 221 211 217 217 219 221 224 221 216 211 207 202 199 199 187 180 182 186 194 192 186 159 174 176 168 174 162 112 184 168 177 182 168 183 188 187 198 172 190 160
284 335 29 351 299 284 285 283 272 271 286 296 299 308 294 287 286 285 282 279 282 280 275 259 240 236 238 248 253 248 242 241 240 222 220 214 216 209 211 211 218 216 215 211 203 200 199 202 193 177 180 187 190 185 180 182 166 167 179 166 155 174 192 178 184 177 184 172 146 138 139 172 202 201
7 356 13 14 30 11 11 352 349 337 316 302 308 310 311 307 300 293 288 283 271 266 264 262 258 246 239 240 241 245 247 247 245 229 222 220 219 212 208 212 218 216 214 210 211 207 206 203 188 189 185 175 176 167 161 184 173 169 170 160 168 162 146 169 178 187 179 142 131 189 227 188 202 190
51 35 31 23 12 19 7 354 342 336 338 334 326 317 316 313 309 305 304 297 286 279 276 269 258 254 244 243 241 244 248 249 247 232 229 225 223 217 210 215 215 210 211 209 209 207 202 200 192 186 179 171 170 164 161 166 176 165 159 170 166 178 176 187 177 183 144 135 172 180 235 234 204 186
78 58 51 35 20 354 354 340 333 324 326 320 315 311 303 300 296 293 291 285 285 286 277 272 270 263 258 254 248 244 243 245 243 231 223 226 219 220 215 219 219 215 212 210 201 196 186 148 118 101 132 148 149 164 169 174 173 168 163 159 170 179 189 180 195 177 167 170 163 154 175 249 238 234
59 41 29 6 356 331 319 310 304 299 298 298 302 307 310 304 299 299 297 293 292 288 281 274 269 265 262 259 252 249 246 244 241 236 223 223 219 219 219 217 215 211 210 208 197 179 162 159 154 152 129 117 118 329 309 205 155 165 149 160 169 175 182 185 178 182 172 165 128 149 171 208 273 249
64 86 22 320 315 303 291 273 271 273 285 296 306 308 308 303 300 300 298 299 298 293 288 281 274 268 263 259 257 252 250 248 247 238 229 219 220 221 219 216 213 211 205 200 188 178 172 169 160 151 157 164 168 172 211 241 178 155 163 164 172 175 173 170 180 166 165 160 168 148 160 190 222 257
106 135 212 254 260 264 294 313 319 317 314 312 309 307 302 302 304 300 300 303 300 296 291 289 282 276 269 264 261 256 252 250 250 245 236 227 220 220 219 217 212 209 202 200 184 178 169 167 166 162 162 164 173 181 180 152 187 182 154 157 168 179 167 161 152 168 185 164 158 162 171 168 213 247
10 248 246 277 326 338 334 324 323 318 319 317 312 309 307 305 307 308 308 308 303 301 297 292 286 280 274 268 265 263 257 249 249 248 241 228 220 213 211 209 210 208 208 196 181 178 172 165 169 170 165 171 172 166 163 164 155 209 184 153 160 174 164 149 159 174 191 181 170 182 137 147 201 225
209 354 357 345 342 339 329 324 324 321 320 318 313 311 312 315 313 314 314 309 309 306 304 298 292 286 281 276 267 263 259 254 251 253 248 237 224 220 218 215 210 206 199 192 178 174 170 174 174 175 174 173 180 177 163 156 176 165 184 177 148 149 165 164 170 176 162 168 194 125 180 226 75 88
22 102 315 342 335 327 315 318 316 316 314 310 308 308 313 312 311 312 313 313 312 310 306 302 296 288 278 273 271 264 258 255 254 254 256 256 254 248 244 223 211 202 193 179 169 172 180 183 181 178 175 169 152 130 131 124 100 116 152 192 168 161 168 161 163 159 177 184 142 147 188 62 207 336
36 9 324 297 305 306 304 307 307 308 308 308 310 309 306 304 309 313 314 312 312 313 315 310 302 289 277 271 264 263 263 258 258 257 257 254 246 231 223 217 225 205 171 163 170 173 183 189 170 145 130 119 110 102 105 110 121 137 156 181 201 195 163 169 163 160 166 157 156 158 168 166 186 136
354 299 285 276 287 292 293 299 308 305 306 309 309 308 305 310 311 313 313 315 320 320 322 324 321 312 297 282 277 271 269 270 269 266 262 257 246 236 246 264 230 188 176 177 181 179 164 129 129 128 119 118 121 128 130 128 138 148 148 149 160 184 188 185 174 171 160 145 134 131 109 73 67 56
301 276 275 275 279 289 308 312 311 310 306 306 306 308 308 314 318 323 325 322 323 326 332 332 331 328 325 314 292 275 267 264 265 266 268 263 252 242 222 194 159 170 196 164 135 126 128 129 119 113 105 97 97 94 114 127 129 131 133 126 144 152 206 231 224 199 162 163 165 163 166 158 132 187
299 288 273 286 313 331 333 324 309 302 300 300 301 302 311 319 323 320 322 323 324 328 329 331 334 340 342 346 344 334 318 299 285 286 281 267 248 243 225 192 162 123 103 108 111 110 104 101 103 107 103 90 85 96 113 121 142 155 142 135 107 121 185 191 197 323 310 276 254 228 180 163 151 152
300 299 314 329 338 338 325 308 300 296 298 301 304 310 319 325 324 322 322 327 327 329 334 333 331 336 350 355 13 19 15 18 8 5 40 43 21 58 75 52 67 109 119 118 106 95 86 83 77 70 75 79 78 112 143 155 153 137 125 126 140 167 167 153 150 179 192 238 232 219 216 202 126 108